Regional Weather Roundup
Issued by NWS Newport/Morehead, NC

Current Version | Previous Version | Graphics & Text | Print | Product List | Glossary On
Versions: 1 2 3 4 5 6 7 8 9 10 11 12 13 14 15 16 17 18 19 20 21 22 23 24 25 26 27 28 29 30 31 32 33 34 35 36 37 38 39 40 41 42 43 44 45 46 47 48 49 50
000 ASUS42 KMHX 281313 RWRMHX WEATHER ROUNDUP FOR EASTERN NORTH CAROLINA NATIONAL WEATHER SERVICE NEWPORT/MOREHEAD CITY NC 900 AM EDT FRI JUL 28 2017 NOTE: "FAIR" INDICATES FEW OR NO CLOUDS BELOW 12,000 FEET WITH NO SIGNIFICANT WEATHER AND/OR OBSTRUCTIONS TO VISIBILITY NCZ015>017-031-032-045>047-102-103-281400- NORTH COAST CITY SKY/WX TMP DP RH WIND PRES REMARKS EDENTON RAIN 78 75 91 W3 29.89R ELIZABETH CITY LGT RAIN 75 75 100 CALM 29.89R KITTY HAWK RAIN 76 74 94 CALM 29.88S MANTEO CLOUDY 78 73 85 W3 29.89S $$ NCZ045>047-081-094-103-104-281400- CENTRAL COAST CITY SKY/WX TMP DP RH WIND PRES REMARKS FRISCO PTSUNNY 81 77 88 SW10 29.90R $$ NCZ095-097-098-100-101-281400- SOUTHERN COAST CITY SKY/WX TMP DP RH WIND PRES REMARKS BEAUFORT CLOUDY 82 77 84 W10 29.90S CEDAR ISLAND NOT AVBL JACKSONVILLE CLOUDY 80 78 94 SW6 29.89F PINEY ISLAND CLOUDY N/A N/A N/A W13 29.90R WILMINGTON CLOUDY 80 77 90 SW5 29.90S $$ NCZ011>013-027>030-043-044-078>080-089-090>093-098-281400- COASTAL PLAIN CITY SKY/WX TMP DP RH WIND PRES REMARKS AHOSKIE N/A 73 72 98 CALM 29.88S CLINTON PTSUNNY 78 76 95 SW5 29.90S ELIZABETHTOWN NOT AVBL GOLDSBORO CLOUDY 79 78 99 SW7 29.87S GREENVILLE CLOUDY 79 73 83 SW9 29.90F HAVELOCK CLOUDY 80 75 84 SW7 29.91S KENANSVILLE CLOUDY 77 73 88 SW6 29.90S KINSTON CLOUDY 79 73 83 SW9 29.90S NEW BERN CLOUDY 78 76 93 SW7 29.91S RICHLANDS PTSUNNY 78 76 93 VRB6 29.91R ROCKY MOUNT CLOUDY 78 76 93 SW6 29.88R WASHINGTON CLOUDY 78 73 86 SW6 29.89S WHITEVILLE PTSUNNY 77 75 94 SW3 29.90F $$ AMZ130-135-150-152-154-156-158-170-250-252-270-ANZ085-086-088-633-658-670-281400- MARINE OBSERVATIONS STATION/POSITION TIME TEMP WIND PRES WAVE SWELL AIR SEA DIR/SP/G HT/PER HT/PER (UTC) (F) (DEG/KT/KT) (MB) (FT/S) (FT/S) CHESAPEAKE LIGHT NOT AVBL 64 E VA BEACH 1250 75 76 250/ 16/ 19 1012.1 4/ 6 2/ 8 DUCK 1248 69 62 20/ 16/ 18 1012.0 2 E DUCK 1300 67 N/A 2/ 8 OREGON INLET 1236 79 79 230/ 13/ 15 1012.1 13E OREGON INLT 1248 76 N/A 3/ 5 2/ 8 HATTERAS CG 1248 80 80 240/ 10/ 12 1012.3 DIAMOND BUOY 1250 81 83 250/ 14/ 17 1012.3 3/ 8 2/ 8 CAPE LOOKOUT 1300 81 250/ 10/ 12 1012.2 BEAUFORT LAB 1248 81 80 250/ 6/ 13 1012.0 30 SE NEW RVR IN 1208 81 83 260/ 12/ 14 1012.9 30 SE NEW RVR IN 1243 83 N/A 3/ 4 27 SE WRIGHTSVLE 1208 79 82 210/ 10/ 16 1012.9 5 SE WRIGHTSVLE 1208 80 81 230/ 8/ 12 1012.5 225 S CAPE HAT 1250 83 83 230/ 14/ 16 1014.7 3/ 7 2/ 7 41 SE CHARLESTON 1250 80 81 180/ 12/ 14 1012.1 3/ 4 2/ 7 $$

USA.gov is the U.S. government's official web portal to all federal, state and local government web resources and services.